Find Arirang-5

NORAD ID: 39227 Int'l Des: 2013-042 Owner: KARI Country: KR operational
LEOCIRCULARRETROGRADESSO

Live Position

Loading 3D Globe...

About Arirang-5

Description loading...

Upcoming Passes

Passes for default location (London). Set your location on the main map for personalized predictions.

Altitude History

Loading altitude history...

Two-Line Element Set

1 39227U 13042A 26111.83353640 .00001683 00000-0 12459-3 0 9998
2 39227 97.6215 299.3224 0003134 6.9006 353.2262 15.04493189695386
Epoch: Apr 21, 2026 • Age: 6 hours

Current Status

Altitude 580.5 km
Velocity 7.57 km/s
Sub-Earth Point -71.88°S, 143.33°W
Launch Date Aug 22, 2013
Age 12.6 years
Type earth observation

Technical Details

Classification Payload
Mass 1400.00 kg
Dry Mass 1400.00 kg
Total Mass 1400.00 kg
Length 4.00 m
Diameter 2.40 m
Span 7.00 m
Shape Hex + panels
Manufacturer KARI
Bus Type Kompsat
Phase Status In Orbit
Owner/State KARI/KR

Most Searched